• In Romania
  • List of Countries
  • For 7 days
  • Water Temperature
  • Satellite Maps
  • Weather Map
  • Weather Widgets
  • user-avatar
    Login

    Hourly Weather Ciudad Bolívar

    Today, 28 May, Monday

    Time Temperature Precipitation Wind Pressure Humidity
    00:00 +29°C° 0 mm 5 mps 754 mmHg 68%
    01:00 +28°C° 0 mm 4 mps 754 mmHg 70%
    02:00 +28°C° 0 mm 4 mps 754 mmHg 73%
    03:00 +27°C° 0 mm 4 mps 754 mmHg 74%
    04:00 +27°C° 0 mm 4 mps 754 mmHg 76%
    05:00 +27°C° 0 mm 4 mps 754 mmHg 78%
    06:00 +27°C° 0 mm 4 mps 754 mmHg 74%
    07:00 +28°C° 0 mm 4 mps 754 mmHg 69%
    08:00 +29°C° 0 mm 5 mps 755 mmHg 65%
    09:00 +32°C° 0 mm 5 mps 755 mmHg 59%
    10:00 +33°C° 0 mm 5 mps 755 mmHg 52%
    11:00 +35°C° 0 mm 5 mps 755 mmHg 46%
    12:00 +36°C° 0 mm 5 mps 754 mmHg 42%
    13:00 +37°C° 0 mm 5 mps 753 mmHg 39%
    14:00 +39°C° 0 mm 5 mps 752 mmHg 36%
    15:00 +37°C° 0 mm 5 mps 752 mmHg 37%
    16:00 +37°C° 0 mm 5 mps 751 mmHg 38%
    17:00 +37°C° 0 mm 5 mps 751 mmHg 39%
    18:00 +36°C° 0 mm 5 mps 751 mmHg 42%
    19:00 +34°C° 0 mm 4 mps 752 mmHg 46%
    20:00 +33°C° 0 mm 4 mps 752 mmHg 49%
    21:00 +33°C° 0 mm 4 mps 753 mmHg 53%
    22:00 +32°C° 0 mm 5 mps 753 mmHg 57%
    23:00 +30°C° 0 mm 5 mps 754 mmHg 61%

    Tomorrow, 29 May, Tuesday

    Time Temperature Precipitation Wind Pressure Humidity
    00:00 +29°C° 0 mm 5 mps 754 mmHg 64%
    01:00 +28°C° 0 mm 5 mps 753 mmHg 67%
    02:00 +27°C° 0 mm 4 mps 753 mmHg 70%
    03:00 +27°C° 0 mm 4 mps 753 mmHg 72%
    04:00 +27°C° 0 mm 4 mps 753 mmHg 74%
    05:00 +26°C° 0 mm 3 mps 753 mmHg 76%
    06:00 +27°C° 0 mm 4 mps 754 mmHg 72%
    07:00 +28°C° 0 mm 4 mps 754 mmHg 68%
    08:00 +29°C° 0 mm 5 mps 755 mmHg 64%
    09:00 +32°C° 0 mm 5 mps 755 mmHg 56%
    10:00 +34°C° 0 mm 4 mps 755 mmHg 49%
    11:00 +35°C° 0 mm 4 mps 755 mmHg 42%
    12:00 +36°C° 0 mm 4 mps 754 mmHg 38%
    13:00 +38°C° 0 mm 4 mps 753 mmHg 35%
    14:00 +40°C° 0 mm 4 mps 752 mmHg 32%
    15:00 +39°C° 0 mm 5 mps 752 mmHg 34%
    16:00 +37°C° 0 mm 5 mps 751 mmHg 36%
    17:00 +37°C° 0 mm 5 mps 751 mmHg 38%
    18:00 +35°C° 0 mm 4 mps 751 mmHg 41%
    19:00 +34°C° 0 mm 4 mps 752 mmHg 45%
    20:00 +33°C° 0 mm 4 mps 752 mmHg 48%
    21:00 +32°C° 0 mm 4 mps 753 mmHg 52%
    22:00 +32°C° 0 mm 4 mps 753 mmHg 55%
    23:00 +30°C° 0 mm 5 mps 754 mmHg 59%

    Day after tomorrow, 30 May, Wednesday

    Time Temperature Precipitation Wind Pressure Humidity
    00:00 +29°C° 0 mm 5 mps 754 mmHg 62%
    01:00 +29°C° 0 mm 4 mps 753 mmHg 66%
    02:00 +28°C° 0 mm 4 mps 753 mmHg 69%
    03:00 +28°C° 0 mm 4 mps 753 mmHg 71%
    04:00 +27°C° 0 mm 4 mps 753 mmHg 73%
    05:00 +27°C° 0 mm 4 mps 753 mmHg 74%
    06:00 +28°C° 0 mm 4 mps 753 mmHg 73%
    07:00 +28°C° 0 mm 4 mps 754 mmHg 71%
    08:00 +28°C° 0 mm 4 mps 754 mmHg 70%
    09:00 +30°C° 0 mm 4 mps 754 mmHg 64%
    10:00 +32°C° 0 mm 4 mps 754 mmHg 58%
    11:00 +33°C° 0 mm 4 mps 754 mmHg 52%
    12:00 +34°C° 0 mm 4 mps 754 mmHg 49%
    13:00 +35°C° 0 mm 4 mps 753 mmHg 46%
    14:00 +36°C° 0 mm 4 mps 752 mmHg 43%
    15:00 +35°C° 0 mm 4 mps 751 mmHg 44%
    16:00 +35°C° 0 mm 4 mps 751 mmHg 45%
    17:00 +35°C° 0 mm 4 mps 750 mmHg 45%
    18:00 +34°C° 0 mm 4 mps 751 mmHg 49%
    19:00 +33°C° 0 mm 4 mps 751 mmHg 52%
    20:00 +32°C° 0 mm 4 mps 752 mmHg 56%
    21:00 +30°C° 0 mm 4 mps 752 mmHg 59%
    22:00 +30°C° 0 mm 5 mps 752 mmHg 62%
    23:00 +29°C° 0 mm 5 mps 753 mmHg 66%

    31 May, Thursday

    Time Temperature Precipitation Wind Pressure Humidity
    00:00 +29°C° 0 mm 4 mps 753 mmHg 68%
    01:00 +28°C° 0 mm 4 mps 752 mmHg 71%
    02:00 +28°C° 0 mm 4 mps 752 mmHg 73%
    03:00 +28°C° 0 mm 4 mps 752 mmHg 74%
    04:00 +28°C° 0 mm 3 mps 752 mmHg 75%
    05:00 +27°C° 0 mm 3 mps 752 mmHg 77%
    06:00 +28°C° 0 mm 3 mps 753 mmHg 75%
    07:00 +28°C° 0 mm 3 mps 753 mmHg 73%
    08:00 +28°C° 0 mm 3 mps 754 mmHg 72%
    09:00 +30°C° 0 mm 3 mps 754 mmHg 65%
    10:00 +31°C° 0 mm 3 mps 754 mmHg 59%
    11:00 +33°C° 0 mm 3 mps 753 mmHg 53%
    12:00 +34°C° 0 mm 3 mps 753 mmHg 49%
    13:00 +35°C° 0 mm 3 mps 752 mmHg 46%
    14:00 +36°C° 0 mm 3 mps 751 mmHg 42%
    15:00 +36°C° 0 mm 3 mps 750 mmHg 43%
    16:00 +36°C° 0 mm 4 mps 750 mmHg 44%
    17:00 +35°C° 0 mm 4 mps 750 mmHg 44%
    18:00 +34°C° 0 mm 4 mps 751 mmHg 50%
    19:00 +33°C° 0 mm 4 mps 751 mmHg 55%
    20:00 +32°C° 0 mm 5 mps 752 mmHg 61%
    21:00 +30°C° 0 mm 5 mps 752 mmHg 64%
    22:00 +30°C° 0 mm 5 mps 753 mmHg 67%
    23:00 +29°C° 0 mm 4 mps 753 mmHg 70%

    1 June, Friday

    Time Temperature Precipitation Wind Pressure Humidity
    00:00 +29°C° 0.2 mm 4 mps 753 mmHg 72%
    01:00 +28°C° 0.2 mm 4 mps 752 mmHg 74%
    02:00 +28°C° 0.2 mm 3 mps 752 mmHg 76%
    03:00 +28°C° 0.2 mm 3 mps 752 mmHg 77%
    04:00 +28°C° 0.2 mm 3 mps 752 mmHg 79%
    05:00 +27°C° 0.2 mm 3 mps 752 mmHg 80%
    06:00 +28°C° 0 mm 3 mps 753 mmHg 77%
    07:00 +28°C° 0 mm 3 mps 753 mmHg 75%
    08:00 +28°C° 0 mm 4 mps 754 mmHg 73%
    09:00 +30°C° 0 mm 4 mps 754 mmHg 66%
    10:00 +32°C° 0 mm 4 mps 754 mmHg 58%
    11:00 +34°C° 0 mm 4 mps 754 mmHg 51%
    12:00 +35°C° 0 mm 4 mps 753 mmHg 48%
    13:00 +35°C° 0 mm 4 mps 752 mmHg 45%
    14:00 +36°C° 0 mm 4 mps 751 mmHg 42%
    15:00 +36°C° 0 mm 4 mps 751 mmHg 42%
    16:00 +36°C° 0 mm 5 mps 750 mmHg 43%
    17:00 +36°C° 0 mm 5 mps 750 mmHg 43%
    18:00 +35°C° 0 mm 5 mps 751 mmHg 48%
    19:00 +33°C° 0 mm 5 mps 751 mmHg 54%
    20:00 +32°C° 0 mm 5 mps 752 mmHg 59%
    21:00 +32°C° 0 mm 5 mps 753 mmHg 62%
    22:00 +30°C° 0 mm 5 mps 753 mmHg 65%
    23:00 +29°C° 0 mm 5 mps 753 mmHg 68%

    2 June, Saturday

    Time Temperature Precipitation Wind Pressure Humidity
    00:00 +29°C° 0 mm 5 mps 753 mmHg 70%
    01:00 +28°C° 0 mm 5 mps 753 mmHg 73%
    02:00 +28°C° 0 mm 4 mps 752 mmHg 75%
    03:00 +27°C° 0 mm 4 mps 752 mmHg 76%
    04:00 +27°C° 0 mm 4 mps 752 mmHg 77%
    05:00 +27°C° 0 mm 4 mps 753 mmHg 79%
    06:00 +28°C° 0 mm 4 mps 753 mmHg 74%
    07:00 +28°C° 0 mm 5 mps 754 mmHg 69%
    08:00 +29°C° 0 mm 5 mps 754 mmHg 64%
    09:00 +32°C° 0 mm 5 mps 754 mmHg 57%
    10:00 +34°C° 0 mm 5 mps 754 mmHg 50%
    11:00 +36°C° 0 mm 6 mps 754 mmHg 42%
    12:00 +37°C° 0 mm 5 mps 753 mmHg 39%
    13:00 +39°C° 0 mm 5 mps 752 mmHg 35%
    14:00 +40°C° 0 mm 5 mps 751 mmHg 32%
    15:00 +40°C° 0 mm 5 mps 750 mmHg 33%
    16:00 +39°C° 0 mm 5 mps 750 mmHg 34%
    17:00 +39°C° 0 mm 5 mps 750 mmHg 36%
    18:00 +37°C° 0 mm 5 mps 751 mmHg 39%
    19:00 +36°C° 0 mm 5 mps 751 mmHg 43%
    20:00 +34°C° 0 mm 5 mps 752 mmHg 47%
    21:00 +33°C° 0 mm 5 mps 752 mmHg 52%
    22:00 +32°C° 0 mm 5 mps 753 mmHg 57%
    23:00 +30°C° 0 mm 6 mps 753 mmHg 62%
    Show more